Time,TemperatureF,DewpointF,PressureIn,WindDirection,WindDirectionDegrees,WindSpeedMPH,WindSpeedGustMPH,Humidity,HourlyPrecipIn,Conditions,Clouds,dailyrainin,SoftwareType,DateUTC
2013-07-08 00:00:00,71.5,68.7,27.01,South,180,0.0,1.0,91,0.00,,,0.00,VWS V13.01,2013-07-08 04:00:00,
2013-07-08 00:01:00,86.2,75.3,31.95,SSE,149,7.0,7.0,70,0.00,,,0.00,VWS V13.01,2013-07-08 04:01:00,
2013-07-08 00:05:00,71.5,68.7,27.01,South,180,0.0,1.0,91,0.00,,,0.00,VWS V13.01,2013-07-08 04:05:00,
2013-07-08 00:06:00,86.2,75.3,31.95,SSE,149,7.0,7.0,70,0.00,,,0.00,VWS V13.01,2013-07-08 04:06:00,
2013-07-08 00:10:00,71.6,68.8,27.01,South,180,0.0,0.0,91,0.00,,,0.00,VWS V13.01,2013-07-08 04:10:00,
2013-07-08 00:11:00,86.2,75.3,31.95,SSE,149,7.0,7.0,70,0.00,,,0.00,VWS V13.01,2013-07-08 04:11:00,
2013-07-08 00:15:00,71.8,69.3,27.01,South,180,0.0,2.0,92,0.00,,,0.00,VWS V13.01,2013-07-08 04:15:00,
2013-07-08 00:16:00,86.2,75.3,31.95,SSE,149,7.0,7.0,70,0.00,,,0.00,VWS V13.01,2013-07-08 04:16:00,
2013-07-08 00:20:00,72.0,69.6,27.01,South,180,0.0,3.0,92,0.00,,,0.00,VWS V13.01,2013-07-08 04:20:00,
2013-07-08 00:21:00,86.2,75.3,31.95,SSE,149,7.0,7.0,70,0.00,,,0.00,VWS V13.01,2013-07-08 04:21:00,
2013-07-08 00:25:00,71.9,69.1,27.01,South,180,0.0,0.0,91,0.00,,,0.00,VWS V13.01,2013-07-08 04:25:00,
2013-07-08 00:26:00,86.2,75.3,31.95,SSE,149,7.0,7.0,70,0.00,,,0.00,VWS V13.01,2013-07-08 04:26:00,
2013-07-08 00:30:00,71.9,69.1,27.01,South,180,0.0,0.0,91,0.00,,,0.00,VWS V13.01,2013-07-08 04:30:00,
2013-07-08 00:31:00,86.2,75.3,31.95,SSE,149,7.0,7.0,70,0.00,,,0.00,VWS V13.01,2013-07-08 04:31:00,
2013-07-08 00:35:00,71.9,69.1,27.01,South,180,0.0,0.0,91,0.00,,,0.00,VWS V13.01,2013-07-08 04:35:00,
2013-07-08 00:36:00,86.2,75.3,31.95,SSE,149,7.0,7.0,70,0.00,,,0.00,VWS V13.01,2013-07-08 04:36:00,
2013-07-08 00:40:00,71.8,69.0,27.01,South,180,0.0,1.0,91,0.00,,,0.00,VWS V13.01,2013-07-08 04:40:00,
2013-07-08 00:41:00,86.2,75.3,31.95,SSE,149,7.0,7.0,70,0.00,,,0.00,VWS V13.01,2013-07-08 04:41:00,
2013-07-08 00:45:00,71.8,69.0,27.01,South,180,0.0,0.0,91,0.00,,,0.00,VWS V13.01,2013-07-08 04:45:00,
2013-07-08 00:46:00,86.2,75.3,31.95,SSE,149,7.0,7.0,70,0.00,,,0.00,VWS V13.01,2013-07-08 04:46:00,
2013-07-08 00:50:00,71.6,68.8,25.51,South,180,0.0,1.0,91,0.00,,,0.00,VWS V13.01,2013-07-08 04:50:00,
2013-07-08 00:51:00,86.2,75.3,31.95,SSE,149,7.0,7.0,70,0.00,,,0.00,VWS V13.01,2013-07-08 04:51:00,
2013-07-08 00:55:00,71.5,68.7,25.51,South,180,0.0,1.0,91,0.00,,,0.00,VWS V13.01,2013-07-08 04:55:00,
2013-07-08 00:56:00,86.2,75.3,31.95,SSE,149,7.0,7.0,70,0.00,,,0.00,VWS V13.01,2013-07-08 04:56:00,
2013-07-08 01:00:00,71.5,69.1,25.51,South,180,0.0,0.0,92,0.00,,,0.00,VWS V13.01,2013-07-08 05:00:00,
2013-07-08 01:01:00,86.2,75.3,31.95,SSE,149,7.0,7.0,70,0.00,,,0.00,VWS V13.01,2013-07-08 05:01:00,
2013-07-08 01:05:00,71.8,69.3,25.51,South,180,0.0,2.0,92,0.00,,,0.00,VWS V13.01,2013-07-08 05:05:00,
2013-07-08 01:06:00,86.2,75.3,31.95,SSE,149,7.0,7.0,70,0.00,,,0.00,VWS V13.01,2013-07-08 05:06:00,
2013-07-08 01:10:00,71.7,68.9,25.51,South,180,0.0,0.0,91,0.00,,,0.00,VWS V13.01,2013-07-08 05:10:00,
2013-07-08 01:11:00,86.2,75.3,31.95,SSE,149,7.0,7.0,70,0.00,,,0.00,VWS V13.01,2013-07-08 05:11:00,
2013-07-08 01:15:00,71.5,68.7,25.51,South,180,0.0,1.0,91,0.00,,,0.00,VWS V13.01,2013-07-08 05:15:00,
2013-07-08 01:16:00,86.2,75.3,31.95,SSE,149,7.0,7.0,70,0.00,,,0.00,VWS V13.01,2013-07-08 05:16:00,
2013-07-08 01:20:00,71.4,68.6,25.51,South,180,0.0,1.0,91,0.00,,,0.00,VWS V13.01,2013-07-08 05:20:00,
2013-07-08 01:21:00,86.2,75.3,31.95,SSE,149,7.0,7.0,70,0.00,,,0.00,VWS V13.01,2013-07-08 05:21:00,
2013-07-08 01:25:00,71.6,69.2,25.51,South,180,0.0,1.0,92,0.00,,,0.00,VWS V13.01,2013-07-08 05:25:00,
2013-07-08 01:26:00,86.2,75.3,31.95,SSE,149,7.0,7.0,70,0.00,,,0.00,VWS V13.01,2013-07-08 05:26:00,
2013-07-08 01:30:00,71.7,69.3,25.51,South,180,0.0,1.0,92,0.00,,,0.00,VWS V13.01,2013-07-08 05:30:00,
2013-07-08 01:31:00,86.2,75.3,31.95,SSE,149,7.0,7.0,70,0.00,,,0.00,VWS V13.01,2013-07-08 05:31:00,
2013-07-08 01:35:00,71.7,69.3,25.51,South,180,0.0,0.0,92,0.00,,,0.00,VWS V13.01,2013-07-08 05:35:00,
2013-07-08 01:36:00,86.2,75.3,31.95,SSE,149,7.0,7.0,70,0.00,,,0.00,VWS V13.01,2013-07-08 05:36:00,
2013-07-08 01:40:00,71.7,69.3,25.51,South,180,0.0,0.0,92,0.00,,,0.00,VWS V13.01,2013-07-08 05:40:00,
2013-07-08 01:41:00,86.2,75.3,31.95,SSE,149,7.0,7.0,70,0.00,,,0.00,VWS V13.01,2013-07-08 05:41:00,
2013-07-08 01:45:00,71.7,69.3,25.51,South,180,0.0,0.0,92,0.00,,,0.00,VWS V13.01,2013-07-08 05:45:00,
2013-07-08 01:46:00,86.2,75.3,31.95,SSE,149,7.0,7.0,70,0.00,,,0.00,VWS V13.01,2013-07-08 05:46:00,
2013-07-08 01:50:00,71.7,69.3,24.00,South,180,0.0,0.0,92,0.00,,,0.00,VWS V13.01,2013-07-08 05:50:00,
2013-07-08 01:51:00,86.2,75.3,31.95,SSE,149,7.0,7.0,70,0.00,,,0.00,VWS V13.01,2013-07-08 05:51:00,
2013-07-08 01:55:00,71.7,69.3,24.00,South,180,0.0,0.0,92,0.00,,,0.00,VWS V13.01,2013-07-08 05:55:00,
2013-07-08 01:56:00,86.2,75.3,31.95,SSE,149,7.0,7.0,70,0.00,,,0.00,VWS V13.01,2013-07-08 05:56:00,
2013-07-08 02:00:00,71.8,69.3,24.00,SW,225,0.0,3.0,92,0.00,,,0.00,VWS V13.01,2013-07-08 06:00:00,
2013-07-08 02:01:00,86.2,75.3,31.95,SSE,149,7.0,7.0,70,0.00,,,0.00,VWS V13.01,2013-07-08 06:01:00,
2013-07-08 02:05:00,71.9,69.4,24.00,SW,225,0.0,1.0,92,0.00,,,0.00,VWS V13.01,2013-07-08 06:05:00,
2013-07-08 02:06:00,86.2,75.3,31.95,SSE,149,7.0,7.0,70,0.00,,,0.00,VWS V13.01,2013-07-08 06:06:00,
2013-07-08 02:10:00,71.8,69.3,25.00,SW,225,0.0,2.0,92,0.00,,,0.00,VWS V13.01,2013-07-08 06:10:00,
2013-07-08 02:11:00,86.2,75.3,31.95,SSE,149,7.0,7.0,70,0.00,,,0.00,VWS V13.01,2013-07-08 06:11:00,
2013-07-08 02:15:00,71.7,69.3,26.26,SW,225,0.0,1.0,92,0.00,,,0.00,VWS V13.01,2013-07-08 06:15:00,
2013-07-08 02:16:00,86.2,75.3,31.95,SSE,149,7.0,7.0,70,0.00,,,0.00,VWS V13.01,2013-07-08 06:16:00,
2013-07-08 02:20:00,71.6,69.2,26.26,SW,225,0.0,0.0,92,0.00,,,0.00,VWS V13.01,2013-07-08 06:20:00,
2013-07-08 02:21:00,86.2,75.3,31.95,SSE,149,7.0,7.0,70,0.00,,,0.00,VWS V13.01,2013-07-08 06:21:00,
2013-07-08 02:25:00,71.7,69.3,26.26,SW,225,0.0,1.0,92,0.00,,,0.00,VWS V13.01,2013-07-08 06:25:00,
2013-07-08 02:26:00,86.2,75.3,31.95,SSE,149,7.0,7.0,70,0.00,,,0.00,VWS V13.01,2013-07-08 06:26:00,
2013-07-08 02:30:00,71.8,69.3,26.26,SW,225,0.0,0.0,92,0.00,,,0.00,VWS V13.01,2013-07-08 06:30:00,
2013-07-08 02:31:00,86.2,75.3,31.95,SSE,149,7.0,7.0,70,0.00,,,0.00,VWS V13.01,2013-07-08 06:31:00,
2013-07-08 02:35:00,71.8,69.3,26.26,SW,225,0.0,1.0,92,0.00,,,0.00,VWS V13.01,2013-07-08 06:35:00,
2013-07-08 02:36:00,86.2,75.3,31.95,SSE,149,7.0,7.0,70,0.00,,,0.00,VWS V13.01,2013-07-08 06:36:00,
2013-07-08 02:40:00,71.9,69.4,26.26,SW,225,1.0,3.0,92,0.00,,,0.00,VWS V13.01,2013-07-08 06:40:00,
2013-07-08 02:41:00,86.2,75.3,31.95,SSE,149,7.0,7.0,70,0.00,,,0.00,VWS V13.01,2013-07-08 06:41:00,
2013-07-08 02:45:00,72.0,69.6,26.26,SW,225,0.0,2.0,92,0.00,,,0.00,VWS V13.01,2013-07-08 06:45:00,
2013-07-08 02:46:00,86.2,75.3,31.95,SSE,149,7.0,7.0,70,0.00,,,0.00,VWS V13.01,2013-07-08 06:46:00,
2013-07-08 02:50:00,72.0,69.6,23.25,SW,225,0.0,0.0,92,0.00,,,0.00,VWS V13.01,2013-07-08 06:50:00,
2013-07-08 02:51:00,86.2,75.3,31.95,SSE,149,7.0,7.0,70,0.00,,,0.00,VWS V13.01,2013-07-08 06:51:00,
2013-07-08 02:55:00,71.9,69.1,23.25,SW,225,0.0,0.0,91,0.00,,,0.00,VWS V13.01,2013-07-08 06:55:00,
2013-07-08 02:56:00,86.2,75.3,31.95,SSE,149,7.0,7.0,70,0.00,,,0.00,VWS V13.01,2013-07-08 06:56:00,
2013-07-08 03:00:00,71.8,69.3,23.25,SW,225,0.0,0.0,92,0.00,,,0.00,VWS V13.01,2013-07-08 07:00:00,
2013-07-08 03:01:00,86.2,75.3,31.95,SSE,149,7.0,7.0,70,0.00,,,0.00,VWS V13.01,2013-07-08 07:01:00,
2013-07-08 03:05:00,71.7,68.9,23.25,SW,225,0.0,0.0,91,0.00,,,0.00,VWS V13.01,2013-07-08 07:05:00,
2013-07-08 03:06:00,86.2,75.3,31.95,SSE,149,7.0,7.0,70,0.00,,,0.00,VWS V13.01,2013-07-08 07:06:00,
2013-07-08 03:10:00,71.7,68.9,23.25,SW,225,0.0,2.0,91,0.00,,,0.00,VWS V13.01,2013-07-08 07:10:00,
2013-07-08 03:11:00,86.2,75.3,31.95,SSE,149,7.0,7.0,70,0.00,,,0.00,VWS V13.01,2013-07-08 07:11:00,
2013-07-08 03:15:00,71.8,69.3,23.25,SSW,202,0.0,3.0,92,0.00,,,0.00,VWS V13.01,2013-07-08 07:15:00,
2013-07-08 03:16:00,86.2,75.3,31.95,SSE,149,7.0,7.0,70,0.00,,,0.00,VWS V13.01,2013-07-08 07:16:00,
2013-07-08 03:20:00,71.7,68.9,23.25,SSW,202,0.0,1.0,91,0.00,,,0.00,VWS V13.01,2013-07-08 07:20:00,
2013-07-08 03:21:00,86.2,75.3,31.95,SSE,149,7.0,7.0,70,0.00,,,0.00,VWS V13.01,2013-07-08 07:21:00,
2013-07-08 03:25:00,71.7,68.9,23.25,SSW,202,0.0,0.0,91,0.00,,,0.00,VWS V13.01,2013-07-08 07:25:00,
2013-07-08 03:26:00,86.2,75.3,31.95,SSE,149,7.0,7.0,70,0.00,,,0.00,VWS V13.01,2013-07-08 07:26:00,
2013-07-08 03:30:00,71.7,69.3,23.25,SSW,202,0.0,3.0,92,0.00,,,0.00,VWS V13.01,2013-07-08 07:30:00,
2013-07-08 03:31:00,86.2,75.3,31.95,SSE,149,7.0,7.0,70,0.00,,,0.00,VWS V13.01,2013-07-08 07:31:00,
2013-07-08 03:35:00,71.8,69.3,24.75,SSW,202,1.0,5.0,92,0.00,,,0.00,VWS V13.01,2013-07-08 07:35:00,
2013-07-08 03:36:00,86.2,75.3,31.95,SSE,149,7.0,7.0,70,0.00,,,0.00,VWS V13.01,2013-07-08 07:36:00,
2013-07-08 03:40:00,71.8,69.0,24.75,South,180,1.0,3.0,91,0.00,,,0.00,VWS V13.01,2013-07-08 07:40:00,
2013-07-08 03:41:00,86.2,75.3,31.95,SSE,149,7.0,7.0,70,0.00,,,0.00,VWS V13.01,2013-07-08 07:41:00,
2013-07-08 03:45:00,71.9,69.4,23.25,SSW,202,1.0,4.0,92,0.00,,,0.00,VWS V13.01,2013-07-08 07:45:00,
2013-07-08 03:46:00,86.2,75.3,31.95,SSE,149,7.0,7.0,70,0.00,,,0.00,VWS V13.01,2013-07-08 07:46:00,
2013-07-08 03:50:00,71.9,69.4,23.25,SSW,202,1.0,4.0,92,0.00,,,0.00,VWS V13.01,2013-07-08 07:50:00,
2013-07-08 03:51:00,86.2,75.3,31.95,SSE,149,7.0,7.0,70,0.00,,,0.00,VWS V13.01,2013-07-08 07:51:00,
2013-07-08 03:55:00,72.0,69.6,23.25,SSW,202,0.0,3.0,92,0.00,,,0.00,VWS V13.01,2013-07-08 07:55:00,
2013-07-08 03:56:00,86.2,75.3,31.95,SSE,149,7.0,7.0,70,0.00,,,0.00,VWS V13.01,2013-07-08 07:56:00,
2013-07-08 04:00:00,71.9,69.4,23.25,SSW,202,1.0,5.0,92,0.00,,,0.00,VWS V13.01,2013-07-08 08:00:00,
2013-07-08 04:01:00,86.2,75.3,31.95,SSE,149,7.0,7.0,70,0.00,,,0.00,VWS V13.01,2013-07-08 08:01:00,
2013-07-08 04:05:00,71.9,69.1,23.25,SSW,202,1.0,7.0,91,0.00,,,0.00,VWS V13.01,2013-07-08 08:05:00,
2013-07-08 04:06:00,86.2,75.3,31.95,SSE,149,7.0,7.0,70,0.00,,,0.00,VWS V13.01,2013-07-08 08:06:00,
2013-07-08 04:07:00,86.2,75.3,31.95,SSE,149,7.0,7.0,70,0.00,,,0.00,VWS V13.01,2013-07-08 08:07:00,
2013-07-08 04:10:00,72.0,69.6,17.08,SSW,202,2.0,5.0,92,0.00,,,0.00,VWS V13.01,2013-07-08 08:10:00,
2013-07-08 04:12:00,86.2,75.3,31.95,SSE,149,7.0,7.0,70,0.00,,,0.00,VWS V13.01,2013-07-08 08:12:00,
2013-07-08 04:15:00,72.1,69.7,17.08,SSW,202,2.0,7.0,92,0.00,,,0.00,VWS V13.01,2013-07-08 08:15:00,
2013-07-08 04:17:00,86.2,75.3,31.95,SSE,149,7.0,7.0,70,0.00,,,0.00,VWS V13.01,2013-07-08 08:17:00,
2013-07-08 04:20:00,72.0,69.2,23.25,SSE,158,1.0,3.0,91,0.01,,,0.01,VWS V13.01,2013-07-08 08:20:00,
2013-07-08 04:22:00,86.2,75.3,31.95,SSE,149,7.0,7.0,70,0.00,,,0.00,VWS V13.01,2013-07-08 08:22:00,
2013-07-08 04:25:00,71.9,69.1,23.25,SSE,158,0.0,1.0,91,0.01,,,0.01,VWS V13.01,2013-07-08 08:25:00,
2013-07-08 04:27:00,86.2,75.3,31.95,SSE,149,7.0,7.0,70,0.00,,,0.00,VWS V13.01,2013-07-08 08:27:00,
2013-07-08 04:30:00,72.0,69.6,23.25,SSE,158,1.0,3.0,92,0.02,,,0.02,VWS V13.01,2013-07-08 08:30:00,
2013-07-08 04:32:00,86.2,75.3,31.95,SSE,149,7.0,7.0,70,0.00,,,0.00,VWS V13.01,2013-07-08 08:32:00,
2013-07-08 04:35:00,72.0,69.6,23.25,SSE,158,0.0,1.0,92,0.03,,,0.03,VWS V13.01,2013-07-08 08:35:00,
2013-07-08 04:37:00,86.2,75.3,31.95,SSE,149,7.0,7.0,70,0.00,,,0.00,VWS V13.01,2013-07-08 08:37:00,
2013-07-08 04:40:00,72.0,69.6,23.25,SW,225,0.0,3.0,92,0.04,,,0.04,VWS V13.01,2013-07-08 08:40:00,
2013-07-08 04:42:00,86.2,75.3,31.95,SSE,149,7.0,7.0,70,0.00,,,0.00,VWS V13.01,2013-07-08 08:42:00,
2013-07-08 04:45:00,71.9,69.4,23.25,SW,225,0.0,1.0,92,0.05,,,0.05,VWS V13.01,2013-07-08 08:45:00,
2013-07-08 04:47:00,86.2,75.3,31.95,SSE,149,7.0,7.0,70,0.00,,,0.00,VWS V13.01,2013-07-08 08:47:00,
2013-07-08 04:50:00,71.6,69.2,23.25,SW,225,0.0,1.0,92,0.05,,,0.05,VWS V13.01,2013-07-08 08:50:00,
2013-07-08 04:52:00,86.2,75.3,31.95,SSE,149,7.0,7.0,70,0.00,,,0.00,VWS V13.01,2013-07-08 08:52:00,
2013-07-08 04:55:00,71.5,69.1,23.25,SW,225,0.0,0.0,92,0.05,,,0.05,VWS V13.01,2013-07-08 08:55:00,
2013-07-08 04:57:00,86.2,75.3,31.95,SSE,149,7.0,7.0,70,0.00,,,0.00,VWS V13.01,2013-07-08 08:57:00,
2013-07-08 05:00:00,71.6,69.2,23.25,SW,225,0.0,0.0,92,0.05,,,0.05,VWS V13.01,2013-07-08 09:00:00,
2013-07-08 05:02:00,86.2,75.3,31.95,SSE,149,7.0,7.0,70,0.00,,,0.00,VWS V13.01,2013-07-08 09:02:00,
2013-07-08 05:05:00,71.7,69.3,23.25,SW,225,0.0,1.0,92,0.05,,,0.05,VWS V13.01,2013-07-08 09:05:00,
2013-07-08 05:07:00,86.2,75.3,31.95,SSE,149,7.0,7.0,70,0.00,,,0.00,VWS V13.01,2013-07-08 09:07:00,
2013-07-08 05:10:00,71.6,69.5,23.25,SW,225,0.0,1.0,93,0.05,,,0.05,VWS V13.01,2013-07-08 09:10:00,
2013-07-08 05:12:00,86.2,75.3,31.95,SSE,149,7.0,7.0,70,0.00,,,0.00,VWS V13.01,2013-07-08 09:12:00,
2013-07-08 05:15:00,71.7,69.6,23.25,SW,225,0.0,1.0,93,0.05,,,0.05,VWS V13.01,2013-07-08 09:15:00,
2013-07-08 05:17:00,86.2,75.3,31.95,SSE,149,7.0,7.0,70,0.00,,,0.00,VWS V13.01,2013-07-08 09:17:00,
2013-07-08 05:20:00,71.6,69.5,24.75,SW,225,0.0,0.0,93,0.05,,,0.05,VWS V13.01,2013-07-08 09:20:00,
2013-07-08 05:22:00,86.2,75.3,31.95,SSE,149,7.0,7.0,70,0.00,,,0.00,VWS V13.01,2013-07-08 09:22:00,
2013-07-08 05:25:00,71.6,69.5,24.75,SW,225,0.0,0.0,93,0.04,,,0.05,VWS V13.01,2013-07-08 09:25:00,
2013-07-08 05:27:00,86.2,75.3,31.95,SSE,149,7.0,7.0,70,0.00,,,0.00,VWS V13.01,2013-07-08 09:27:00,
2013-07-08 05:30:00,71.6,69.5,24.75,SW,225,0.0,2.0,93,0.04,,,0.05,VWS V13.01,2013-07-08 09:30:00,
2013-07-08 05:32:00,86.2,75.3,31.95,SSE,149,7.0,7.0,70,0.00,,,0.00,VWS V13.01,2013-07-08 09:32:00,
2013-07-08 05:35:00,71.4,69.3,24.75,SW,225,0.0,1.0,93,0.03,,,0.05,VWS V13.01,2013-07-08 09:35:00,
2013-07-08 05:37:00,86.2,75.3,31.95,SSE,149,7.0,7.0,70,0.00,,,0.00,VWS V13.01,2013-07-08 09:37:00,
2013-07-08 05:40:00,71.5,69.4,24.75,SW,225,0.0,2.0,93,0.02,,,0.05,VWS V13.01,2013-07-08 09:40:00,
2013-07-08 05:42:00,86.2,75.3,31.95,SSE,149,7.0,7.0,70,0.00,,,0.00,VWS V13.01,2013-07-08 09:42:00,
2013-07-08 05:45:00,71.6,69.5,23.25,SW,225,0.0,1.0,93,0.01,,,0.05,VWS V13.01,2013-07-08 09:45:00,
2013-07-08 05:47:00,86.2,75.3,31.95,SSE,149,7.0,7.0,70,0.00,,,0.00,VWS V13.01,2013-07-08 09:47:00,
2013-07-08 05:50:00,71.7,69.6,23.25,SW,225,0.0,1.0,93,0.00,,,0.05,VWS V13.01,2013-07-08 09:50:00,
2013-07-08 05:52:00,86.2,75.3,31.95,SSE,149,7.0,7.0,70,0.00,,,0.00,VWS V13.01,2013-07-08 09:52:00,
2013-07-08 05:55:00,71.7,69.6,23.25,SW,225,0.0,0.0,93,0.00,,,0.05,VWS V13.01,2013-07-08 09:55:00,
2013-07-08 05:57:00,86.2,75.3,31.95,SSE,149,7.0,7.0,70,0.00,,,0.00,VWS V13.01,2013-07-08 09:57:00,
2013-07-08 06:00:00,71.6,69.5,23.25,SW,225,0.0,0.0,93,0.00,,,0.05,VWS V13.01,2013-07-08 10:00:00,
2013-07-08 06:02:00,86.2,75.3,31.95,SSE,149,7.0,7.0,70,0.00,,,0.00,VWS V13.01,2013-07-08 10:02:00,
2013-07-08 06:05:00,71.3,69.2,23.25,SW,225,0.0,1.0,93,0.00,,,0.05,VWS V13.01,2013-07-08 10:05:00,
2013-07-08 06:07:00,86.2,75.3,31.95,SSE,149,7.0,7.0,70,0.00,,,0.00,VWS V13.01,2013-07-08 10:07:00,
2013-07-08 06:10:00,71.3,69.2,23.25,SW,225,0.0,1.0,93,0.00,,,0.05,VWS V13.01,2013-07-08 10:10:00,
2013-07-08 06:12:00,86.2,75.3,31.95,SSE,149,7.0,7.0,70,0.00,,,0.00,VWS V13.01,2013-07-08 10:12:00,
2013-07-08 06:15:00,71.5,69.4,23.25,SW,225,0.0,0.0,93,0.00,,,0.05,VWS V13.01,2013-07-08 10:15:00,
2013-07-08 06:17:00,86.2,75.3,31.95,SSE,149,7.0,7.0,70,0.00,,,0.00,VWS V13.01,2013-07-08 10:17:00,
2013-07-08 06:20:00,71.6,69.8,23.25,SW,225,0.0,2.0,94,0.00,,,0.05,VWS V13.01,2013-07-08 10:20:00,
2013-07-08 06:22:00,86.2,75.3,31.95,SSE,149,7.0,7.0,70,0.00,,,0.00,VWS V13.01,2013-07-08 10:22:00,
2013-07-08 06:25:00,71.6,69.8,23.25,SW,225,0.0,3.0,94,0.00,,,0.05,VWS V13.01,2013-07-08 10:25:00,
2013-07-08 06:27:00,86.2,75.3,31.95,SSE,149,7.0,7.0,70,0.00,,,0.00,VWS V13.01,2013-07-08 10:27:00,
2013-07-08 06:30:00,71.8,70.0,23.25,SW,225,0.0,3.0,94,0.00,,,0.05,VWS V13.01,2013-07-08 10:30:00,
2013-07-08 06:32:00,86.2,75.3,31.95,SSE,149,7.0,7.0,70,0.00,,,0.00,VWS V13.01,2013-07-08 10:32:00,
2013-07-08 06:35:00,71.7,69.9,23.25,SW,225,0.0,2.0,94,0.00,,,0.05,VWS V13.01,2013-07-08 10:35:00,
2013-07-08 06:37:00,86.2,75.3,31.95,SSE,149,7.0,7.0,70,0.00,,,0.00,VWS V13.01,2013-07-08 10:37:00,
2013-07-08 06:40:00,71.9,70.1,23.25,SW,225,0.0,2.0,94,0.00,,,0.05,VWS V13.01,2013-07-08 10:40:00,
2013-07-08 06:42:00,86.2,75.3,31.95,SSE,149,7.0,7.0,70,0.00,,,0.00,VWS V13.01,2013-07-08 10:42:00,
2013-07-08 06:45:00,71.9,70.1,23.25,SW,225,1.0,3.0,94,0.00,,,0.05,VWS V13.01,2013-07-08 10:45:00,
2013-07-08 06:47:00,86.2,75.3,31.95,SSE,149,7.0,7.0,70,0.00,,,0.00,VWS V13.01,2013-07-08 10:47:00,
2013-07-08 06:50:00,72.0,70.2,17.08,SW,225,0.0,2.0,94,0.00,,,0.05,VWS V13.01,2013-07-08 10:50:00,
2013-07-08 06:52:00,86.2,75.3,31.95,SSE,149,7.0,7.0,70,0.00,,,0.00,VWS V13.01,2013-07-08 10:52:00,
2013-07-08 06:55:00,72.0,70.2,17.08,SW,225,1.0,5.0,94,0.00,,,0.05,VWS V13.01,2013-07-08 10:55:00,
2013-07-08 06:57:00,86.2,75.3,31.95,SSE,149,7.0,7.0,70,0.00,,,0.00,VWS V13.01,2013-07-08 10:57:00,
2013-07-08 07:00:00,72.0,70.2,17.08,SW,225,2.0,4.0,94,0.00,,,0.05,VWS V13.01,2013-07-08 11:00:00,
2013-07-08 07:02:00,86.2,75.3,31.95,SSE,149,7.0,7.0,70,0.00,,,0.00,VWS V13.01,2013-07-08 11:02:00,
2013-07-08 07:05:00,72.1,70.3,17.83,SSW,202,1.0,3.0,94,0.00,,,0.05,VWS V13.01,2013-07-08 11:05:00,
2013-07-08 07:07:00,86.2,75.3,31.95,SSE,149,7.0,7.0,70,0.00,,,0.00,VWS V13.01,2013-07-08 11:07:00,
2013-07-08 07:10:00,72.2,70.4,17.83,SSW,202,1.0,3.0,94,0.00,,,0.05,VWS V13.01,2013-07-08 11:10:00,
2013-07-08 07:12:00,86.2,75.3,31.95,SSE,149,7.0,7.0,70,0.00,,,0.00,VWS V13.01,2013-07-08 11:12:00,
2013-07-08 07:15:00,72.2,70.4,17.83,SSW,202,1.0,3.0,94,0.00,,,0.05,VWS V13.01,2013-07-08 11:15:00,
2013-07-08 07:17:00,86.2,75.3,31.95,SSE,149,7.0,7.0,70,0.00,,,0.00,VWS V13.01,2013-07-08 11:17:00,
2013-07-08 07:20:00,72.4,70.6,17.83,SSW,202,1.0,3.0,94,0.00,,,0.05,VWS V13.01,2013-07-08 11:20:00,
2013-07-08 07:22:00,86.2,75.3,31.95,SSE,149,7.0,7.0,70,0.00,,,0.00,VWS V13.01,2013-07-08 11:22:00,
2013-07-08 07:25:00,72.4,70.6,17.83,SSW,202,0.0,2.0,94,0.00,,,0.05,VWS V13.01,2013-07-08 11:25:00,
2013-07-08 07:27:00,86.2,75.3,31.95,SSE,149,7.0,7.0,70,0.00,,,0.00,VWS V13.01,2013-07-08 11:27:00,
2013-07-08 07:30:00,72.4,70.6,17.83,SSW,202,1.0,3.0,94,0.00,,,0.05,VWS V13.01,2013-07-08 11:30:00,
2013-07-08 07:32:00,86.2,75.3,31.95,SSE,149,7.0,7.0,70,0.00,,,0.00,VWS V13.01,2013-07-08 11:32:00,
2013-07-08 07:35:00,72.4,70.6,17.83,South,180,1.0,3.0,94,0.00,,,0.05,VWS V13.01,2013-07-08 11:35:00,
2013-07-08 07:37:00,86.2,75.3,31.95,SSE,149,7.0,7.0,70,0.00,,,0.00,VWS V13.01,2013-07-08 11:37:00,
2013-07-08 07:40:00,72.4,70.6,17.83,South,180,1.0,3.0,94,0.00,,,0.05,VWS V13.01,2013-07-08 11:40:00,
2013-07-08 07:42:00,86.2,75.3,31.95,SSE,149,7.0,7.0,70,0.00,,,0.00,VWS V13.01,2013-07-08 11:42:00,
2013-07-08 07:45:00,72.3,70.5,17.83,SE,135,1.0,6.0,94,0.00,,,0.05,VWS V13.01,2013-07-08 11:45:00,
2013-07-08 07:47:00,86.2,75.3,31.95,SSE,149,7.0,7.0,70,0.00,,,0.00,VWS V13.01,2013-07-08 11:47:00,
2013-07-08 07:50:00,72.4,70.6,17.83,SE,135,0.0,2.0,94,0.00,,,0.05,VWS V13.01,2013-07-08 11:50:00,
2013-07-08 07:52:00,86.2,75.3,31.95,SSE,149,7.0,7.0,70,0.00,,,0.00,VWS V13.01,2013-07-08 11:52:00,
2013-07-08 07:55:00,72.7,70.9,17.83,SE,135,0.0,2.0,94,0.00,,,0.05,VWS V13.01,2013-07-08 11:55:00,
2013-07-08 07:57:00,86.2,75.3,31.95,SSE,149,7.0,7.0,70,0.00,,,0.00,VWS V13.01,2013-07-08 11:57:00,
2013-07-08 08:00:00,72.9,71.1,17.83,SE,135,1.0,3.0,94,0.00,,,0.05,VWS V13.01,2013-07-08 12:00:00,
2013-07-08 08:02:00,86.2,75.3,31.95,SSE,149,7.0,7.0,70,0.00,,,0.00,VWS V13.01,2013-07-08 12:02:00,
2013-07-08 08:05:00,73.1,71.0,17.83,SSW,202,2.0,5.0,93,0.00,,,0.05,VWS V13.01,2013-07-08 12:05:00,
2013-07-08 08:07:00,86.2,75.3,31.95,SSE,149,7.0,7.0,70,0.00,,,0.00,VWS V13.01,2013-07-08 12:07:00,
2013-07-08 08:10:00,73.4,71.3,17.83,SSW,202,1.0,3.0,93,0.00,,,0.05,VWS V13.01,2013-07-08 12:10:00,
2013-07-08 08:12:00,86.2,75.3,31.95,SSE,149,7.0,7.0,70,0.00,,,0.00,VWS V13.01,2013-07-08 12:12:00,
2013-07-08 08:15:00,73.9,71.8,17.83,South,180,1.0,3.0,93,0.00,,,0.05,VWS V13.01,2013-07-08 12:15:00,
2013-07-08 08:17:00,86.2,75.3,31.95,SSE,149,7.0,7.0,70,0.00,,,0.00,VWS V13.01,2013-07-08 12:17:00,
2013-07-08 08:20:00,74.2,71.7,23.23,South,180,1.0,4.0,92,0.00,,,0.05,VWS V13.01,2013-07-08 12:20:00,
2013-07-08 08:22:00,86.2,75.3,31.95,SSE,149,7.0,7.0,70,0.00,,,0.00,VWS V13.01,2013-07-08 12:22:00,
2013-07-08 08:25:00,74.6,72.1,23.23,SE,135,1.0,4.0,92,0.00,,,0.05,VWS V13.01,2013-07-08 12:25:00,
2013-07-08 08:27:00,86.2,75.3,31.95,SSE,149,7.0,7.0,70,0.00,,,0.00,VWS V13.01,2013-07-08 12:27:00,
2013-07-08 08:30:00,75.1,72.3,23.23,SE,135,0.0,1.0,91,0.00,,,0.05,VWS V13.01,2013-07-08 12:30:00,
2013-07-08 08:32:00,86.2,75.3,31.95,SSE,149,7.0,7.0,70,0.00,,,0.00,VWS V13.01,2013-07-08 12:32:00,
2013-07-08 08:35:00,75.4,72.3,23.23,SE,135,1.0,3.0,90,0.00,,,0.05,VWS V13.01,2013-07-08 12:35:00,
2013-07-08 08:37:00,86.2,75.3,31.95,SSE,149,7.0,7.0,70,0.00,,,0.00,VWS V13.01,2013-07-08 12:37:00,
2013-07-08 08:40:00,75.4,71.9,23.23,South,180,1.0,3.0,89,0.00,,,0.05,VWS V13.01,2013-07-08 12:40:00,
2013-07-08 08:42:00,86.2,75.3,31.95,SSE,149,7.0,7.0,70,0.00,,,0.00,VWS V13.01,2013-07-08 12:42:00,
2013-07-08 08:45:00,75.4,71.9,23.23,South,180,1.0,3.0,89,0.00,,,0.05,VWS V13.01,2013-07-08 12:45:00,
2013-07-08 08:47:00,86.2,75.3,31.95,SSE,149,7.0,7.0,70,0.00,,,0.00,VWS V13.01,2013-07-08 12:47:00,
2013-07-08 08:50:00,75.5,72.0,23.23,South,180,0.0,2.0,89,0.00,,,0.05,VWS V13.01,2013-07-08 12:50:00,
2013-07-08 08:52:00,86.2,75.3,31.95,SSE,149,7.0,7.0,70,0.00,,,0.00,VWS V13.01,2013-07-08 12:52:00,
2013-07-08 08:55:00,75.7,71.9,23.23,South,180,0.0,1.0,88,0.00,,,0.05,VWS V13.01,2013-07-08 12:55:00,
2013-07-08 08:57:00,86.2,75.3,31.95,SSE,149,7.0,7.0,70,0.00,,,0.00,VWS V13.01,2013-07-08 12:57:00,
2013-07-08 09:00:00,76.0,72.2,23.23,South,180,1.0,3.0,88,0.00,,,0.05,VWS V13.01,2013-07-08 13:00:00,
2013-07-08 09:02:00,86.2,75.3,31.95,SSE,149,7.0,7.0,70,0.00,,,0.00,VWS V13.01,2013-07-08 13:02:00,
2013-07-08 09:05:00,76.1,72.3,23.23,South,180,1.0,2.0,88,0.00,,,0.05,VWS V13.01,2013-07-08 13:05:00,
2013-07-08 09:07:00,86.2,75.3,31.95,SSE,149,7.0,7.0,70,0.00,,,0.00,VWS V13.01,2013-07-08 13:07:00,
2013-07-08 09:10:00,76.2,72.1,23.23,South,180,1.0,3.0,87,0.00,,,0.05,VWS V13.01,2013-07-08 13:10:00,
2013-07-08 09:12:00,86.2,75.3,31.95,SSE,149,7.0,7.0,70,0.00,,,0.00,VWS V13.01,2013-07-08 13:12:00,
2013-07-08 09:15:00,76.4,72.2,23.23,South,180,1.0,2.0,87,0.01,,,0.06,VWS V13.01,2013-07-08 13:15:00,
2013-07-08 09:17:00,86.2,75.3,31.95,SSE,149,7.0,7.0,70,0.00,,,0.00,VWS V13.01,2013-07-08 13:17:00,
2013-07-08 09:20:00,76.7,72.5,23.27,South,180,0.0,2.0,87,0.01,,,0.06,VWS V13.01,2013-07-08 13:20:00,
2013-07-08 09:22:00,86.2,75.3,31.95,SSE,149,7.0,7.0,70,0.00,,,0.00,VWS V13.01,2013-07-08 13:22:00,
2013-07-08 09:25:00,77.1,72.6,23.27,South,180,0.0,2.0,86,0.01,,,0.06,VWS V13.01,2013-07-08 13:25:00,
2013-07-08 09:27:00,86.2,75.3,31.95,SSE,149,7.0,7.0,70,0.00,,,0.00,VWS V13.01,2013-07-08 13:27:00,
2013-07-08 09:30:00,77.4,72.9,23.27,South,180,1.0,3.0,86,0.01,,,0.06,VWS V13.01,2013-07-08 13:30:00,
2013-07-08 09:32:00,86.2,75.3,31.95,SSE,149,7.0,7.0,70,0.00,,,0.00,VWS V13.01,2013-07-08 13:32:00,
2013-07-08 09:35:00,77.3,72.1,23.27,South,180,1.0,3.0,84,0.01,,,0.06,VWS V13.01,2013-07-08 13:35:00,
2013-07-08 09:37:00,86.2,75.3,31.95,SSE,149,7.0,7.0,70,0.00,,,0.00,VWS V13.01,2013-07-08 13:37:00,
2013-07-08 09:40:00,77.3,72.4,23.27,SSE,158,1.0,6.0,85,0.01,,,0.06,VWS V13.01,2013-07-08 13:40:00,
2013-07-08 09:42:00,86.2,75.3,31.95,SSE,149,7.0,7.0,70,0.00,,,0.00,VWS V13.01,2013-07-08 13:42:00,
2013-07-08 09:45:00,77.5,72.6,23.27,SSE,158,0.0,2.0,85,0.01,,,0.06,VWS V13.01,2013-07-08 13:45:00,
2013-07-08 09:47:00,86.2,75.3,31.95,SSE,149,7.0,7.0,70,0.00,,,0.00,VWS V13.01,2013-07-08 13:47:00,
2013-07-08 09:50:00,77.7,72.5,23.27,SSE,158,1.0,3.0,84,0.01,,,0.06,VWS V13.01,2013-07-08 13:50:00,
2013-07-08 09:52:00,86.2,75.3,31.95,SSE,149,7.0,7.0,70,0.00,,,0.00,VWS V13.01,2013-07-08 13:52:00,
2013-07-08 09:55:00,77.8,72.6,23.27,South,180,2.0,5.0,84,0.01,,,0.06,VWS V13.01,2013-07-08 13:55:00,
2013-07-08 09:57:00,86.2,75.3,31.95,SSE,149,7.0,7.0,70,0.00,,,0.00,VWS V13.01,2013-07-08 13:57:00,
2013-07-08 10:00:00,78.1,72.9,23.27,SSW,202,1.0,3.0,84,0.01,,,0.06,VWS V13.01,2013-07-08 14:00:00,
2013-07-08 10:02:00,86.2,75.3,31.95,SSE,149,7.0,7.0,70,0.00,,,0.00,VWS V13.01,2013-07-08 14:02:00,
2013-07-08 10:05:00,78.5,73.3,23.27,SSW,202,1.0,2.0,84,0.01,,,0.06,VWS V13.01,2013-07-08 14:05:00,
2013-07-08 10:07:00,86.2,75.3,31.95,SSE,149,7.0,7.0,70,0.00,,,0.00,VWS V13.01,2013-07-08 14:07:00,
2013-07-08 10:10:00,78.7,73.1,23.27,South,180,1.0,4.0,83,0.01,,,0.06,VWS V13.01,2013-07-08 14:10:00,
2013-07-08 10:12:00,86.2,75.3,31.95,SSE,149,7.0,7.0,70,0.00,,,0.00,VWS V13.01,2013-07-08 14:12:00,
2013-07-08 10:15:00,78.6,72.7,23.27,East,90,1.0,4.0,82,0.01,,,0.06,VWS V13.01,2013-07-08 14:15:00,
2013-07-08 10:17:00,86.2,75.3,31.95,SSE,149,7.0,7.0,70,0.00,,,0.00,VWS V13.01,2013-07-08 14:17:00,
2013-07-08 10:20:00,78.7,72.8,23.27,SW,225,1.0,3.0,82,0.00,,,0.06,VWS V13.01,2013-07-08 14:20:00,
2013-07-08 10:22:00,86.2,75.3,31.95,SSE,149,7.0,7.0,70,0.00,,,0.00,VWS V13.01,2013-07-08 14:22:00,
2013-07-08 10:25:00,79.3,73.3,22.74,SW,225,1.0,4.0,82,0.00,,,0.06,VWS V13.01,2013-07-08 14:25:00,
2013-07-08 10:27:00,86.2,75.3,31.95,SSE,149,7.0,7.0,70,0.00,,,0.00,VWS V13.01,2013-07-08 14:27:00,
2013-07-08 10:30:00,79.6,72.9,22.74,ESE,112,2.0,6.0,80,0.00,,,0.06,VWS V13.01,2013-07-08 14:30:00,
2013-07-08 10:32:00,86.2,75.3,31.95,SSE,149,7.0,7.0,70,0.00,,,0.00,VWS V13.01,2013-07-08 14:32:00,
2013-07-08 10:35:00,79.7,73.4,22.74,East,90,2.0,5.0,81,0.00,,,0.06,VWS V13.01,2013-07-08 14:35:00,
2013-07-08 10:37:00,86.2,75.3,31.95,SSE,149,7.0,7.0,70,0.00,,,0.00,VWS V13.01,2013-07-08 14:37:00,
2013-07-08 10:40:00,80.1,73.4,22.74,East,90,1.0,3.0,80,0.00,,,0.06,VWS V13.01,2013-07-08 14:40:00,
2013-07-08 10:42:00,86.2,75.3,31.95,SSE,149,7.0,7.0,70,0.00,,,0.00,VWS V13.01,2013-07-08 14:42:00,
2013-07-08 10:45:00,80.1,73.0,22.74,South,180,3.0,6.0,79,0.00,,,0.06,VWS V13.01,2013-07-08 14:45:00,
2013-07-08 10:47:00,86.2,75.3,31.95,SSE,149,7.0,7.0,70,0.00,,,0.00,VWS V13.01,2013-07-08 14:47:00,
2013-07-08 10:50:00,80.2,73.1,22.74,East,90,2.0,5.0,79,0.00,,,0.06,VWS V13.01,2013-07-08 14:50:00,
2013-07-08 10:52:00,86.2,75.3,31.95,SSE,149,7.0,7.0,70,0.00,,,0.00,VWS V13.01,2013-07-08 14:52:00,
2013-07-08 10:55:00,80.5,73.4,22.74,ESE,112,1.0,3.0,79,0.00,,,0.06,VWS V13.01,2013-07-08 14:55:00,
2013-07-08 10:57:00,86.2,75.3,31.95,SSE,149,7.0,7.0,70,0.00,,,0.00,VWS V13.01,2013-07-08 14:57:00,
2013-07-08 11:00:00,80.6,72.7,22.74,South,180,1.0,6.0,77,0.00,,,0.06,VWS V13.01,2013-07-08 15:00:00,
2013-07-08 11:02:00,86.2,75.3,31.95,SSE,149,7.0,7.0,70,0.00,,,0.00,VWS V13.01,2013-07-08 15:02:00,
2013-07-08 11:05:00,81.4,73.5,22.74,SE,135,1.0,4.0,77,0.00,,,0.06,VWS V13.01,2013-07-08 15:05:00,
2013-07-08 11:07:00,86.2,75.3,31.95,SSE,149,7.0,7.0,70,0.00,,,0.00,VWS V13.01,2013-07-08 15:07:00,
2013-07-08 11:10:00,81.6,72.9,22.74,SSW,202,2.0,7.0,75,0.00,,,0.06,VWS V13.01,2013-07-08 15:10:00,
2013-07-08 11:12:00,86.2,75.3,31.95,SSE,149,7.0,7.0,70,0.00,,,0.00,VWS V13.01,2013-07-08 15:12:00,
2013-07-08 11:15:00,81.7,73.0,22.74,SW,225,2.0,6.0,75,0.00,,,0.06,VWS V13.01,2013-07-08 15:15:00,
2013-07-08 11:17:00,86.2,75.3,31.95,SSE,149,7.0,7.0,70,0.00,,,0.00,VWS V13.01,2013-07-08 15:17:00,
2013-07-08 11:20:00,81.9,72.4,22.74,SW,225,2.0,5.0,73,0.00,,,0.06,VWS V13.01,2013-07-08 15:20:00,
2013-07-08 11:22:00,86.2,75.3,31.95,SSE,149,7.0,7.0,70,0.00,,,0.00,VWS V13.01,2013-07-08 15:22:00,
2013-07-08 11:25:00,81.9,72.0,22.74,South,180,3.0,7.0,72,0.00,,,0.06,VWS V13.01,2013-07-08 15:25:00,
2013-07-08 11:27:00,86.2,75.3,31.95,SSE,149,7.0,7.0,70,0.00,,,0.00,VWS V13.01,2013-07-08 15:27:00,
2013-07-08 11:30:00,81.6,71.3,22.74,South,180,4.0,10.0,71,0.00,,,0.06,VWS V13.01,2013-07-08 15:30:00,
2013-07-08 11:32:00,86.2,75.3,31.95,SSE,149,7.0,7.0,70,0.00,,,0.00,VWS V13.01,2013-07-08 15:32:00,
2013-07-08 11:35:00,81.8,71.9,22.74,South,180,2.0,6.0,72,0.00,,,0.06,VWS V13.01,2013-07-08 15:35:00,
2013-07-08 11:37:00,86.2,75.3,31.95,SSE,149,7.0,7.0,70,0.00,,,0.00,VWS V13.01,2013-07-08 15:37:00,
2013-07-08 11:40:00,82.5,71.7,22.74,West,270,3.0,7.0,70,0.00,,,0.06,VWS V13.01,2013-07-08 15:40:00,
2013-07-08 11:42:00,86.2,75.3,31.95,SSE,149,7.0,7.0,70,0.00,,,0.00,VWS V13.01,2013-07-08 15:42:00,
2013-07-08 11:45:00,82.8,71.6,22.74,South,180,3.0,10.0,69,0.00,,,0.06,VWS V13.01,2013-07-08 15:45:00,
2013-07-08 11:47:00,86.2,75.3,31.95,SSE,149,7.0,7.0,70,0.00,,,0.00,VWS V13.01,2013-07-08 15:47:00,
2013-07-08 11:50:00,82.4,71.6,22.74,SSW,202,3.0,7.0,70,0.00,,,0.06,VWS V13.01,2013-07-08 15:50:00,
2013-07-08 11:52:00,86.2,75.3,31.95,SSE,149,7.0,7.0,70,0.00,,,0.00,VWS V13.01,2013-07-08 15:52:00,
2013-07-08 11:55:00,82.7,72.3,22.74,West,270,2.0,6.0,71,0.00,,,0.06,VWS V13.01,2013-07-08 15:55:00,
2013-07-08 11:57:00,86.2,75.3,31.95,SSE,149,7.0,7.0,70,0.00,,,0.00,VWS V13.01,2013-07-08 15:57:00,
2013-07-08 12:00:00,83.2,72.0,22.74,SSW,202,4.0,10.0,69,0.00,,,0.06,VWS V13.01,2013-07-08 16:00:00,
2013-07-08 12:02:00,86.2,75.3,31.95,SSE,149,7.0,7.0,70,0.00,,,0.00,VWS V13.01,2013-07-08 16:02:00,
2013-07-08 12:05:00,83.6,71.9,22.74,SSE,158,1.0,5.0,68,0.00,,,0.06,VWS V13.01,2013-07-08 16:05:00,
2013-07-08 12:07:00,86.2,75.3,31.95,SSE,149,7.0,7.0,70,0.00,,,0.00,VWS V13.01,2013-07-08 16:07:00,
2013-07-08 12:10:00,84.6,72.0,22.74,WSW,248,2.0,5.0,66,0.00,,,0.06,VWS V13.01,2013-07-08 16:10:00,
2013-07-08 12:12:00,86.2,75.3,31.95,SSE,149,7.0,7.0,70,0.00,,,0.00,VWS V13.01,2013-07-08 16:12:00,
2013-07-08 12:15:00,84.7,72.1,22.74,WSW,248,4.0,14.0,66,0.00,,,0.06,VWS V13.01,2013-07-08 16:15:00,
2013-07-08 12:17:00,86.2,75.3,31.95,SSE,149,7.0,7.0,70,0.00,,,0.00,VWS V13.01,2013-07-08 16:17:00,
2013-07-08 12:20:00,84.3,71.7,22.74,WNW,292,3.0,6.0,66,0.00,,,0.06,VWS V13.01,2013-07-08 16:20:00,
2013-07-08 12:22:00,86.2,75.3,31.95,SSE,149,7.0,7.0,70,0.00,,,0.00,VWS V13.01,2013-07-08 16:22:00,
2013-07-08 12:25:00,84.4,71.8,22.74,WNW,292,2.0,5.0,66,0.00,,,0.06,VWS V13.01,2013-07-08 16:25:00,
2013-07-08 12:27:00,86.2,75.3,31.95,SSE,149,7.0,7.0,70,0.00,,,0.00,VWS V13.01,2013-07-08 16:27:00,
2013-07-08 12:30:00,84.4,72.2,22.74,WNW,292,2.0,5.0,67,0.00,,,0.06,VWS V13.01,2013-07-08 16:30:00,
2013-07-08 12:32:00,86.2,75.3,31.95,SSE,149,7.0,7.0,70,0.00,,,0.00,VWS V13.01,2013-07-08 16:32:00,
2013-07-08 12:35:00,83.9,72.2,22.74,SSW,202,3.0,11.0,68,0.00,,,0.06,VWS V13.01,2013-07-08 16:35:00,
2013-07-08 12:37:00,86.2,75.3,31.95,SSE,149,7.0,7.0,70,0.00,,,0.00,VWS V13.01,2013-07-08 16:37:00,
2013-07-08 12:40:00,83.8,71.2,22.74,SSW,202,3.0,9.0,66,0.00,,,0.06,VWS V13.01,2013-07-08 16:40:00,
2013-07-08 12:42:00,86.2,75.3,31.95,SSE,149,7.0,7.0,70,0.00,,,0.00,VWS V13.01,2013-07-08 16:42:00,
2013-07-08 12:45:00,83.7,71.6,22.74,SSW,202,4.0,11.0,67,0.00,,,0.06,VWS V13.01,2013-07-08 16:45:00,
2013-07-08 12:47:00,86.2,75.3,31.95,SSE,149,7.0,7.0,70,0.00,,,0.00,VWS V13.01,2013-07-08 16:47:00,
2013-07-08 12:50:00,83.7,72.0,22.74,South,180,2.0,8.0,68,0.00,,,0.06,VWS V13.01,2013-07-08 16:50:00,
2013-07-08 12:52:00,86.2,75.3,31.95,SSE,149,7.0,7.0,70,0.00,,,0.00,VWS V13.01,2013-07-08 16:52:00,
2013-07-08 12:55:00,83.8,71.2,22.74,SW,225,3.0,7.0,66,0.00,,,0.06,VWS V13.01,2013-07-08 16:55:00,
2013-07-08 12:57:00,86.2,75.3,31.95,SSE,149,7.0,7.0,70,0.00,,,0.00,VWS V13.01,2013-07-08 16:57:00,
2013-07-08 13:00:00,83.6,71.5,22.74,SE,135,2.0,7.0,67,0.00,,,0.06,VWS V13.01,2013-07-08 17:00:00,
2013-07-08 13:02:00,86.2,75.3,31.95,SSE,149,7.0,7.0,70,0.00,,,0.00,VWS V13.01,2013-07-08 17:02:00,
2013-07-08 13:05:00,82.8,71.2,22.74,South,180,5.0,13.0,68,0.00,,,0.06,VWS V13.01,2013-07-08 17:05:00,
2013-07-08 13:07:00,86.2,75.3,31.95,SSE,149,7.0,7.0,70,0.00,,,0.00,VWS V13.01,2013-07-08 17:07:00,
2013-07-08 13:10:00,82.5,71.3,22.74,South,180,4.0,11.0,69,0.00,,,0.06,VWS V13.01,2013-07-08 17:10:00,
2013-07-08 13:13:00,86.2,75.3,31.95,SSE,149,7.0,7.0,70,0.00,,,0.00,VWS V13.01,2013-07-08 17:13:00,
2013-07-08 13:15:00,82.0,71.3,22.74,South,180,4.0,9.0,70,0.00,,,0.06,VWS V13.01,2013-07-08 17:15:00,
2013-07-08 13:18:00,86.2,75.3,31.95,SSE,149,7.0,7.0,70,0.00,,,0.00,VWS V13.01,2013-07-08 17:18:00,
2013-07-08 13:20:00,81.8,71.1,22.74,SSW,202,3.0,7.0,70,0.00,,,0.06,VWS V13.01,2013-07-08 17:20:00,
2013-07-08 13:23:00,86.2,75.3,31.95,SSE,149,7.0,7.0,70,0.00,,,0.00,VWS V13.01,2013-07-08 17:23:00,
2013-07-08 13:25:00,80.6,71.2,22.74,West,270,8.0,20.0,73,0.00,,,0.06,VWS V13.01,2013-07-08 17:25:00,
2013-07-08 13:28:00,86.2,75.3,31.95,SSE,149,7.0,7.0,70,0.00,,,0.00,VWS V13.01,2013-07-08 17:28:00,
2013-07-08 13:30:00,78.7,70.5,22.74,SW,225,4.0,11.0,76,0.00,,,0.06,VWS V13.01,2013-07-08 17:30:00,
2013-07-08 13:33:00,86.2,75.3,31.95,SSE,149,7.0,7.0,70,0.00,,,0.00,VWS V13.01,2013-07-08 17:33:00,
2013-07-08 13:35:00,77.0,69.6,22.74,WSW,248,5.0,10.0,78,0.00,,,0.06,VWS V13.01,2013-07-08 17:35:00,
2013-07-08 13:38:00,86.2,75.3,31.95,SSE,149,7.0,7.0,70,0.00,,,0.00,VWS V13.01,2013-07-08 17:38:00,
2013-07-08 13:40:00,76.2,69.2,22.74,WNW,292,2.0,6.0,79,0.00,,,0.06,VWS V13.01,2013-07-08 17:40:00,
2013-07-08 13:43:00,86.2,75.3,31.95,SSE,149,7.0,7.0,70,0.00,,,0.00,VWS V13.01,2013-07-08 17:43:00,
2013-07-08 13:45:00,75.8,68.8,22.74,WNW,292,4.0,8.0,79,0.00,,,0.06,VWS V13.01,2013-07-08 17:45:00,
2013-07-08 13:48:00,86.2,75.3,31.95,SSE,149,7.0,7.0,70,0.00,,,0.00,VWS V13.01,2013-07-08 17:48:00,
2013-07-08 13:50:00,76.2,69.2,22.74,NW,315,2.0,4.0,79,0.00,,,0.06,VWS V13.01,2013-07-08 17:50:00,
2013-07-08 13:53:00,86.2,75.3,31.95,SSE,149,7.0,7.0,70,0.00,,,0.00,VWS V13.01,2013-07-08 17:53:00,
2013-07-08 13:55:00,77.0,69.6,22.74,WNW,292,0.0,3.0,78,0.00,,,0.06,VWS V13.01,2013-07-08 17:55:00,
2013-07-08 13:58:00,86.2,75.3,31.95,SSE,149,7.0,7.0,70,0.00,,,0.00,VWS V13.01,2013-07-08 17:58:00,
2013-07-08 14:00:00,78.2,69.6,22.74,WNW,292,0.0,3.0,75,0.00,,,0.06,VWS V13.01,2013-07-08 18:00:00,
2013-07-08 14:03:00,86.2,75.3,31.95,SSE,149,7.0,7.0,70,0.00,,,0.00,VWS V13.01,2013-07-08 18:03:00,
2013-07-08 14:05:00,79.2,69.8,22.74,WNW,292,2.0,6.0,73,0.00,,,0.06,VWS V13.01,2013-07-08 18:05:00,
2013-07-08 14:08:00,86.2,75.3,31.95,SSE,149,7.0,7.0,70,0.00,,,0.00,VWS V13.01,2013-07-08 18:08:00,
2013-07-08 14:10:00,80.0,70.2,22.74,WSW,248,1.0,3.0,72,0.00,,,0.06,VWS V13.01,2013-07-08 18:10:00,
2013-07-08 14:13:00,86.2,75.3,31.95,SSE,149,7.0,7.0,70,0.00,,,0.00,VWS V13.01,2013-07-08 18:13:00,
2013-07-08 14:15:00,80.6,69.9,22.74,South,180,2.0,6.0,70,0.00,,,0.06,VWS V13.01,2013-07-08 18:15:00,
2013-07-08 14:18:00,86.2,75.3,31.95,SSE,149,7.0,7.0,70,0.00,,,0.00,VWS V13.01,2013-07-08 18:18:00,
2013-07-08 14:20:00,81.2,70.9,22.74,South,180,0.0,2.0,71,0.00,,,0.06,VWS V13.01,2013-07-08 18:20:00,
2013-07-08 14:23:00,86.2,75.3,31.95,SSE,149,7.0,7.0,70,0.00,,,0.00,VWS V13.01,2013-07-08 18:23:00,
2013-07-08 14:25:00,81.8,70.6,22.74,South,180,2.0,6.0,69,0.00,,,0.06,VWS V13.01,2013-07-08 18:25:00,
2013-07-08 14:28:00,86.2,75.3,31.95,SSE,149,7.0,7.0,70,0.00,,,0.00,VWS V13.01,2013-07-08 18:28:00,
2013-07-08 14:30:00,82.5,70.9,23.29,South,180,2.0,5.0,68,0.00,,,0.06,VWS V13.01,2013-07-08 18:30:00,
2013-07-08 14:33:00,86.2,75.3,31.95,SSE,149,7.0,7.0,70,0.00,,,0.00,VWS V13.01,2013-07-08 18:33:00,
2013-07-08 14:35:00,83.1,71.4,23.29,SSW,202,3.0,7.0,68,0.00,,,0.06,VWS V13.01,2013-07-08 18:35:00,
2013-07-08 14:38:00,86.2,75.3,31.95,SSE,149,7.0,7.0,70,0.00,,,0.00,VWS V13.01,2013-07-08 18:38:00,
2013-07-08 14:40:00,83.6,72.4,23.29,South,180,2.0,4.0,69,0.00,,,0.06,VWS V13.01,2013-07-08 18:40:00,
2013-07-08 14:43:00,86.2,75.3,31.95,SSE,149,7.0,7.0,70,0.00,,,0.00,VWS V13.01,2013-07-08 18:43:00,
2013-07-08 14:45:00,84.0,72.7,23.29,SSW,202,2.0,5.0,69,0.00,,,0.06,VWS V13.01,2013-07-08 18:45:00,
2013-07-08 14:49:00,86.2,75.3,31.95,SSE,149,7.0,7.0,70,0.00,,,0.00,VWS V13.01,2013-07-08 18:49:00,
2013-07-08 14:50:00,84.7,72.5,23.29,SSW,202,1.0,5.0,67,0.00,,,0.06,VWS V13.01,2013-07-08 18:50:00,
2013-07-08 14:54:00,86.2,75.3,31.95,SSE,149,7.0,7.0,70,0.00,,,0.00,VWS V13.01,2013-07-08 18:54:00,
2013-07-08 14:55:00,84.8,72.6,23.29,West,270,3.0,10.0,67,0.00,,,0.06,VWS V13.01,2013-07-08 18:55:00,
2013-07-08 14:59:00,86.2,75.3,31.95,SSE,149,7.0,7.0,70,0.00,,,0.00,VWS V13.01,2013-07-08 18:59:00,
2013-07-08 15:00:00,85.0,71.9,23.29,SE,135,3.0,9.0,65,0.00,,,0.06,VWS V13.01,2013-07-08 19:00:00,
2013-07-08 15:04:00,86.2,75.3,31.95,SSE,149,7.0,7.0,70,0.00,,,0.00,VWS V13.01,2013-07-08 19:04:00,
2013-07-08 15:05:00,84.8,71.7,23.29,South,180,4.0,10.0,65,0.00,,,0.06,VWS V13.01,2013-07-08 19:05:00,
2013-07-08 15:10:00,86.2,75.3,31.95,SSE,149,7.0,7.0,70,0.00,,,0.00,VWS V13.01,2013-07-08 19:10:00,
2013-07-08 15:15:00,86.2,75.3,31.95,SSE,149,7.0,7.0,70,0.00,,,0.00,VWS V13.01,2013-07-08 19:15:00,
2013-07-08 15:20:00,86.2,75.3,31.95,SSE,149,7.0,7.0,70,0.00,,,0.00,VWS V13.01,2013-07-08 19:20:00,
2013-07-08 15:25:00,86.2,75.3,31.95,SSE,149,7.0,7.0,70,0.00,,,0.00,VWS V13.01,2013-07-08 19:25:00,
2013-07-08 15:30:00,86.2,75.3,31.95,SSE,149,7.0,7.0,70,0.00,,,0.00,VWS V13.01,2013-07-08 19:30:00,
2013-07-08 15:35:00,86.2,75.3,31.95,SSE,149,7.0,7.0,70,0.00,,,0.00,VWS V13.01,2013-07-08 19:35:00,
2013-07-08 15:40:00,86.2,75.3,31.95,SSE,149,7.0,7.0,70,0.00,,,0.00,VWS V13.01,2013-07-08 19:40:00,
2013-07-08 15:45:00,86.2,75.3,31.95,SSE,149,7.0,7.0,70,0.00,,,0.00,VWS V13.01,2013-07-08 19:45:00,
2013-07-08 15:50:00,86.2,75.3,31.95,SSE,149,7.0,7.0,70,0.00,,,0.00,VWS V13.01,2013-07-08 19:50:00,
2013-07-08 15:55:00,86.2,75.3,31.95,SSE,149,7.0,7.0,70,0.00,,,0.00,VWS V13.01,2013-07-08 19:55:00,
2013-07-08 16:00:00,86.2,75.3,31.95,SSE,149,7.0,7.0,70,0.00,,,0.00,VWS V13.01,2013-07-08 20:00:00,
2013-07-08 16:05:00,86.2,75.3,31.95,SSE,149,7.0,7.0,70,0.00,,,0.00,VWS V13.01,2013-07-08 20:05:00,
2013-07-08 16:10:00,86.2,75.3,31.95,SSE,149,7.0,7.0,70,0.00,,,0.00,VWS V13.01,2013-07-08 20:10:00,
2013-07-08 16:15:00,85.3,70.8,23.29,WSW,248,3.0,10.0,62,0.00,,,0.06,VWS V13.01,2013-07-08 20:15:00,
2013-07-08 16:16:00,86.2,75.3,31.95,SSE,149,7.0,7.0,70,0.00,,,0.00,VWS V13.01,2013-07-08 20:16:00,
2013-07-08 16:20:00,85.0,71.0,23.29,SW,225,1.0,4.0,63,0.00,,,0.06,VWS V13.01,2013-07-08 20:20:00,
2013-07-08 16:21:00,86.2,75.3,31.95,SSE,149,7.0,7.0,70,0.00,,,0.00,VWS V13.01,2013-07-08 20:21:00,
2013-07-08 16:25:00,84.6,71.1,23.29,South,180,2.0,6.0,64,0.00,,,0.06,VWS V13.01,2013-07-08 20:25:00,
2013-07-08 16:26:00,86.2,75.3,31.95,SSE,149,7.0,7.0,70,0.00,,,0.00,VWS V13.01,2013-07-08 20:26:00,
2013-07-08 16:30:00,84.6,71.6,16.88,SSW,202,1.0,7.0,65,0.00,,,0.06,VWS V13.01,2013-07-08 20:30:00,
2013-07-08 16:31:00,86.2,75.3,31.95,SSE,149,7.0,7.0,70,0.00,,,0.00,VWS V13.01,2013-07-08 20:31:00,
2013-07-08 16:35:00,85.0,71.5,16.88,South,180,2.0,7.0,64,0.00,,,0.06,VWS V13.01,2013-07-08 20:35:00,
2013-07-08 16:36:00,86.2,75.3,31.95,SSE,149,7.0,7.0,70,0.00,,,0.00,VWS V13.01,2013-07-08 20:36:00,
2013-07-08 16:40:00,85.4,71.8,16.88,South,180,3.0,9.0,64,0.00,,,0.06,VWS V13.01,2013-07-08 20:40:00,
2013-07-08 16:41:00,86.2,75.3,31.95,SSE,149,7.0,7.0,70,0.00,,,0.00,VWS V13.01,2013-07-08 20:41:00,
2013-07-08 16:45:00,85.5,71.5,16.88,South,180,3.0,9.0,63,0.00,,,0.06,VWS V13.01,2013-07-08 20:45:00,
2013-07-08 16:46:00,86.2,75.3,31.95,SSE,149,7.0,7.0,70,0.00,,,0.00,VWS V13.01,2013-07-08 20:46:00,
2013-07-08 16:50:00,85.9,71.4,16.88,South,180,3.0,9.0,62,0.00,,,0.06,VWS V13.01,2013-07-08 20:50:00,
2013-07-08 16:51:00,86.2,75.3,31.95,SSE,149,7.0,7.0,70,0.00,,,0.00,VWS V13.01,2013-07-08 20:51:00,
2013-07-08 16:55:00,86.3,71.8,16.88,South,180,3.0,10.0,62,0.00,,,0.06,VWS V13.01,2013-07-08 20:55:00,
2013-07-08 16:56:00,86.2,75.3,31.95,SSE,149,7.0,7.0,70,0.00,,,0.00,VWS V13.01,2013-07-08 20:56:00,
2013-07-08 17:00:00,85.9,71.4,16.88,SSE,158,3.0,7.0,62,0.00,,,0.06,VWS V13.01,2013-07-08 21:00:00,
2013-07-08 17:01:00,86.2,75.3,31.95,SSE,149,7.0,7.0,70,0.00,,,0.00,VWS V13.01,2013-07-08 21:01:00,
2013-07-08 17:05:00,85.6,71.1,16.88,SSW,202,4.0,11.0,62,0.00,,,0.06,VWS V13.01,2013-07-08 21:05:00,
2013-07-08 17:07:00,86.2,75.3,31.95,SSE,149,7.0,7.0,70,0.00,,,0.00,VWS V13.01,2013-07-08 21:07:00,
2013-07-08 17:10:00,85.6,71.6,16.88,South,180,2.0,5.0,63,0.00,,,0.06,VWS V13.01,2013-07-08 21:10:00,
2013-07-08 17:12:00,86.2,75.3,31.95,SSE,149,7.0,7.0,70,0.00,,,0.00,VWS V13.01,2013-07-08 21:12:00,
2013-07-08 17:15:00,86.0,71.5,16.88,South,180,2.0,6.0,62,0.00,,,0.06,VWS V13.01,2013-07-08 21:15:00,
2013-07-08 17:17:00,86.2,75.3,31.95,SSE,149,7.0,7.0,70,0.00,,,0.00,VWS V13.01,2013-07-08 21:17:00,
2013-07-08 17:20:00,86.1,70.6,16.88,SSW,202,3.0,8.0,60,0.00,,,0.06,VWS V13.01,2013-07-08 21:20:00,
2013-07-08 17:22:00,86.2,75.3,31.95,SSE,149,7.0,7.0,70,0.00,,,0.00,VWS V13.01,2013-07-08 21:22:00,
2013-07-08 17:25:00,86.0,70.0,16.88,South,180,3.0,8.0,59,0.00,,,0.06,VWS V13.01,2013-07-08 21:25:00,
2013-07-08 17:27:00,86.2,75.3,31.95,SSE,149,7.0,7.0,70,0.00,,,0.00,VWS V13.01,2013-07-08 21:27:00,
2013-07-08 17:30:00,85.9,69.9,16.88,SW,225,3.0,9.0,59,0.00,,,0.06,VWS V13.01,2013-07-08 21:30:00,
2013-07-08 17:32:00,86.2,75.3,31.95,SSE,149,7.0,7.0,70,0.00,,,0.00,VWS V13.01,2013-07-08 21:32:00,
2013-07-08 17:35:00,85.7,70.2,32.43,South,180,4.0,9.0,60,0.00,,,0.06,VWS V13.01,2013-07-08 21:35:00,
2013-07-08 17:37:00,86.2,75.3,31.95,SSE,149,7.0,7.0,70,0.00,,,0.00,VWS V13.01,2013-07-08 21:37:00,
2013-07-08 17:40:00,85.9,70.4,32.43,SSW,202,2.0,6.0,60,0.00,,,0.06,VWS V13.01,2013-07-08 21:40:00,
2013-07-08 17:42:00,86.2,75.3,31.95,SSE,149,7.0,7.0,70,0.00,,,0.00,VWS V13.01,2013-07-08 21:42:00,
2013-07-08 17:45:00,85.9,70.4,32.43,South,180,4.0,9.0,60,0.00,,,0.06,VWS V13.01,2013-07-08 21:45:00,
2013-07-08 17:48:00,86.2,75.3,31.95,SSE,149,7.0,7.0,70,0.00,,,0.00,VWS V13.01,2013-07-08 21:48:00,
2013-07-08 17:50:00,85.6,69.6,32.43,SSW,202,4.0,9.0,59,0.00,,,0.06,VWS V13.01,2013-07-08 21:50:00,
2013-07-08 17:53:00,86.2,75.3,31.95,SSE,149,7.0,7.0,70,0.00,,,0.00,VWS V13.01,2013-07-08 21:53:00,
2013-07-08 17:55:00,85.5,70.0,32.43,SSW,202,4.0,11.0,60,0.00,,,0.06,VWS V13.01,2013-07-08 21:55:00,
2013-07-08 17:58:00,86.2,75.3,31.95,SSE,149,7.0,7.0,70,0.00,,,0.00,VWS V13.01,2013-07-08 21:58:00,
2013-07-08 18:00:00,85.3,69.8,32.43,SSW,202,4.0,13.0,60,0.00,,,0.06,VWS V13.01,2013-07-08 22:00:00,
2013-07-08 18:03:00,86.2,75.3,31.95,SSE,149,7.0,7.0,70,0.00,,,0.00,VWS V13.01,2013-07-08 22:03:00,
2013-07-08 18:05:00,85.2,70.7,32.43,SW,225,4.0,11.0,62,0.00,,,0.06,VWS V13.01,2013-07-08 22:05:00,
2013-07-08 18:08:00,86.2,75.3,31.95,SSE,149,7.0,7.0,70,0.00,,,0.00,VWS V13.01,2013-07-08 22:08:00,
2013-07-08 18:10:00,85.2,70.2,32.43,South,180,5.0,10.0,61,0.00,,,0.06,VWS V13.01,2013-07-08 22:10:00,
2013-07-08 18:13:00,86.2,75.3,31.95,SSE,149,7.0,7.0,70,0.00,,,0.00,VWS V13.01,2013-07-08 22:13:00,
2013-07-08 18:15:00,85.4,70.9,32.43,SSW,202,3.0,9.0,62,0.00,,,0.06,VWS V13.01,2013-07-08 22:15:00,
2013-07-08 18:19:00,86.2,75.3,31.95,SSE,149,7.0,7.0,70,0.00,,,0.00,VWS V13.01,2013-07-08 22:19:00,
2013-07-08 18:20:00,85.3,70.8,32.43,SSE,158,4.0,9.0,62,0.00,,,0.06,VWS V13.01,2013-07-08 22:20:00,
2013-07-08 18:24:00,86.2,75.3,31.95,SSE,149,7.0,7.0,70,0.00,,,0.00,VWS V13.01,2013-07-08 22:24:00,
2013-07-08 18:25:00,85.3,71.3,32.43,SSW,202,3.0,6.0,63,0.00,,,0.06,VWS V13.01,2013-07-08 22:25:00,
2013-07-08 18:29:00,86.2,75.3,31.95,SSE,149,7.0,7.0,70,0.00,,,0.00,VWS V13.01,2013-07-08 22:29:00,
2013-07-08 18:30:00,85.3,70.8,32.43,South,180,3.0,7.0,62,0.00,,,0.06,VWS V13.01,2013-07-08 22:30:00,
2013-07-08 18:34:00,86.2,75.3,31.95,SSE,149,7.0,7.0,70,0.00,,,0.00,VWS V13.01,2013-07-08 22:34:00,
2013-07-08 18:35:00,85.1,71.1,32.43,SSE,158,3.0,10.0,63,0.00,,,0.06,VWS V13.01,2013-07-08 22:35:00,
2013-07-08 18:39:00,86.2,75.3,31.95,SSE,149,7.0,7.0,70,0.00,,,0.00,VWS V13.01,2013-07-08 22:39:00,
2013-07-08 18:40:00,85.3,71.3,32.43,South,180,2.0,6.0,63,0.00,,,0.06,VWS V13.01,2013-07-08 22:40:00,
2013-07-08 18:44:00,86.2,75.3,31.95,SSE,149,7.0,7.0,70,0.00,,,0.00,VWS V13.01,2013-07-08 22:44:00,
2013-07-08 18:45:00,85.2,71.2,32.43,SSW,202,3.0,7.0,63,0.00,,,0.06,VWS V13.01,2013-07-08 22:45:00,
2013-07-08 18:49:00,86.2,75.3,31.95,SSE,149,7.0,7.0,70,0.00,,,0.00,VWS V13.01,2013-07-08 22:49:00,
2013-07-08 18:50:00,85.2,71.7,32.43,SSW,202,4.0,9.0,64,0.00,,,0.06,VWS V13.01,2013-07-08 22:50:00,
2013-07-08 18:54:00,86.2,75.3,31.95,SSE,149,7.0,7.0,70,0.00,,,0.00,VWS V13.01,2013-07-08 22:54:00,
2013-07-08 18:55:00,85.0,71.5,32.43,South,180,2.0,7.0,64,0.00,,,0.06,VWS V13.01,2013-07-08 22:55:00,
2013-07-08 19:00:00,86.2,75.3,31.95,SSE,149,7.0,7.0,70,0.00,,,0.00,VWS V13.01,2013-07-08 23:00:00,
2013-07-08 19:05:00,86.2,75.3,31.95,SSE,149,7.0,7.0,70,0.00,,,0.00,VWS V13.01,2013-07-08 23:05:00,
2013-07-08 19:10:00,86.2,75.3,31.95,SSE,149,7.0,7.0,70,0.00,,,0.00,VWS V13.01,2013-07-08 23:10:00,
2013-07-08 19:15:00,86.2,75.3,31.95,SSE,149,7.0,7.0,70,0.00,,,0.00,VWS V13.01,2013-07-08 23:15:00,
2013-07-08 19:20:00,86.2,75.3,31.95,SSE,149,7.0,7.0,70,0.00,,,0.00,VWS V13.01,2013-07-08 23:20:00,
2013-07-08 19:25:00,86.2,75.3,31.95,SSE,149,7.0,7.0,70,0.00,,,0.00,VWS V13.01,2013-07-08 23:25:00,
2013-07-08 19:30:00,86.2,75.3,31.95,SSE,149,7.0,7.0,70,0.00,,,0.00,VWS V13.01,2013-07-08 23:30:00,
2013-07-08 19:35:00,86.2,75.3,31.95,SSE,149,7.0,7.0,70,0.00,,,0.00,VWS V13.01,2013-07-08 23:35:00,
2013-07-08 19:40:00,86.2,75.3,31.95,SSE,149,7.0,7.0,70,0.00,,,0.00,VWS V13.01,2013-07-08 23:40:00,
2013-07-08 19:45:00,86.2,75.3,31.95,SSE,149,7.0,7.0,70,0.00,,,0.00,VWS V13.01,2013-07-08 23:45:00,
2013-07-08 19:50:00,86.2,75.3,31.95,SSE,149,7.0,7.0,70,0.00,,,0.00,VWS V13.01,2013-07-08 23:50:00,
2013-07-08 19:55:00,86.2,75.3,31.95,SSE,149,7.0,7.0,70,0.00,,,0.00,VWS V13.01,2013-07-08 23:55:00,
2013-07-08 20:00:00,86.2,75.3,31.95,SSE,149,7.0,7.0,70,0.00,,,0.00,VWS V13.01,2013-07-09 00:00:00,
2013-07-08 20:05:00,83.3,70.8,32.43,SSW,202,1.0,7.0,66,0.00,,,0.06,VWS V13.01,2013-07-09 00:05:00,
2013-07-08 20:06:00,86.2,75.3,31.95,SSE,149,7.0,7.0,70,0.00,,,0.00,VWS V13.01,2013-07-09 00:06:00,
2013-07-08 20:10:00,83.2,70.7,32.43,South,180,2.0,5.0,66,0.00,,,0.06,VWS V13.01,2013-07-09 00:10:00,
2013-07-08 20:11:00,86.2,75.3,31.95,SSE,149,7.0,7.0,70,0.00,,,0.00,VWS V13.01,2013-07-09 00:11:00,
2013-07-08 20:15:00,83.0,70.5,32.43,SSW,202,2.0,6.0,66,0.00,,,0.06,VWS V13.01,2013-07-09 00:15:00,
2013-07-08 20:16:00,86.2,75.3,31.95,SSE,149,7.0,7.0,70,0.00,,,0.00,VWS V13.01,2013-07-09 00:16:00,
2013-07-08 20:20:00,82.9,70.4,32.43,SE,135,3.0,6.0,66,0.00,,,0.06,VWS V13.01,2013-07-09 00:20:00,
2013-07-08 20:21:00,86.2,75.3,31.95,SSE,149,7.0,7.0,70,0.00,,,0.00,VWS V13.01,2013-07-09 00:21:00,
2013-07-08 20:25:00,82.8,70.3,32.43,South,180,1.0,4.0,66,0.00,,,0.06,VWS V13.01,2013-07-09 00:25:00,
2013-07-08 20:26:00,86.2,75.3,31.95,SSE,149,7.0,7.0,70,0.00,,,0.00,VWS V13.01,2013-07-09 00:26:00,
2013-07-08 20:30:00,82.7,70.6,32.43,SSE,158,1.0,4.0,67,0.00,,,0.06,VWS V13.01,2013-07-09 00:30:00,
2013-07-08 20:31:00,86.2,75.3,31.95,SSE,149,7.0,7.0,70,0.00,,,0.00,VWS V13.01,2013-07-09 00:31:00,
2013-07-08 20:35:00,82.5,70.9,32.43,SSE,158,1.0,7.0,68,0.00,,,0.06,VWS V13.01,2013-07-09 00:35:00,
2013-07-08 20:36:00,86.2,75.3,31.95,SSE,149,7.0,7.0,70,0.00,,,0.00,VWS V13.01,2013-07-09 00:36:00,
2013-07-08 20:40:00,82.3,70.7,32.43,SSW,202,1.0,5.0,68,0.00,,,0.06,VWS V13.01,2013-07-09 00:40:00,
2013-07-08 20:42:00,86.2,75.3,31.95,SSE,149,7.0,7.0,70,0.00,,,0.00,VWS V13.01,2013-07-09 00:42:00,
2013-07-08 20:45:00,82.1,70.9,32.43,SE,135,1.0,5.0,69,0.00,,,0.06,VWS V13.01,2013-07-09 00:45:00,
2013-07-08 20:47:00,86.2,75.3,31.95,SSE,149,7.0,7.0,70,0.00,,,0.00,VWS V13.01,2013-07-09 00:47:00,
2013-07-08 20:50:00,81.9,70.7,32.43,SE,135,2.0,6.0,69,0.00,,,0.06,VWS V13.01,2013-07-09 00:50:00,
2013-07-08 20:52:00,86.2,75.3,31.95,SSE,149,7.0,7.0,70,0.00,,,0.00,VWS V13.01,2013-07-09 00:52:00,
2013-07-08 20:55:00,81.7,70.6,32.43,SE,135,1.0,6.0,69,0.00,,,0.06,VWS V13.01,2013-07-09 00:55:00,
2013-07-08 20:57:00,86.2,75.3,31.95,SSE,149,7.0,7.0,70,0.00,,,0.00,VWS V13.01,2013-07-09 00:57:00,
2013-07-08 21:00:00,81.6,70.9,32.43,SE,135,1.0,5.0,70,0.00,,,0.06,VWS V13.01,2013-07-09 01:00:00,
2013-07-08 21:02:00,86.2,75.3,31.95,SSE,149,7.0,7.0,70,0.00,,,0.00,VWS V13.01,2013-07-09 01:02:00,
2013-07-08 21:05:00,81.4,70.7,32.43,South,180,2.0,5.0,70,0.00,,,0.06,VWS V13.01,2013-07-09 01:05:00,
2013-07-08 21:07:00,86.2,75.3,31.95,SSE,149,7.0,7.0,70,0.00,,,0.00,VWS V13.01,2013-07-09 01:07:00,
2013-07-08 21:10:00,81.4,70.7,32.43,SSW,202,3.0,7.0,70,0.00,,,0.06,VWS V13.01,2013-07-09 01:10:00,
2013-07-08 21:12:00,86.2,75.3,31.95,SSE,149,7.0,7.0,70,0.00,,,0.00,VWS V13.01,2013-07-09 01:12:00,
2013-07-08 21:15:00,81.4,70.7,32.43,ESE,112,2.0,6.0,70,0.00,,,0.06,VWS V13.01,2013-07-09 01:15:00,
2013-07-08 21:17:00,86.2,75.3,31.95,SSE,149,7.0,7.0,70,0.00,,,0.00,VWS V13.01,2013-07-09 01:17:00,
2013-07-08 21:20:00,81.2,70.9,32.43,SSE,158,2.0,5.0,71,0.00,,,0.06,VWS V13.01,2013-07-09 01:20:00,
2013-07-08 21:22:00,86.2,75.3,31.95,SSE,149,7.0,7.0,70,0.00,,,0.00,VWS V13.01,2013-07-09 01:22:00,
2013-07-08 21:25:00,81.1,70.8,32.43,South,180,2.0,7.0,71,0.00,,,0.06,VWS V13.01,2013-07-09 01:25:00,
2013-07-08 21:27:00,86.2,75.3,31.95,SSE,149,7.0,7.0,70,0.00,,,0.00,VWS V13.01,2013-07-09 01:27:00,
2013-07-08 21:30:00,80.9,71.0,32.43,SSE,158,2.0,6.0,72,0.00,,,0.06,VWS V13.01,2013-07-09 01:30:00,
2013-07-08 21:32:00,86.2,75.3,31.95,SSE,149,7.0,7.0,70,0.00,,,0.00,VWS V13.01,2013-07-09 01:32:00,
2013-07-08 21:35:00,80.8,70.9,32.43,South,180,2.0,5.0,72,0.00,,,0.06,VWS V13.01,2013-07-09 01:35:00,
2013-07-08 21:38:00,86.2,75.3,31.95,SSE,149,7.0,7.0,70,0.00,,,0.00,VWS V13.01,2013-07-09 01:38:00,
2013-07-08 21:40:00,80.6,70.8,32.43,SE,135,0.0,3.0,72,0.00,,,0.06,VWS V13.01,2013-07-09 01:40:00,
2013-07-08 21:43:00,86.2,75.3,31.95,SSE,149,7.0,7.0,70,0.00,,,0.00,VWS V13.01,2013-07-09 01:43:00,
2013-07-08 21:45:00,80.3,70.5,32.43,SW,225,1.0,4.0,72,0.00,,,0.06,VWS V13.01,2013-07-09 01:45:00,
2013-07-08 21:48:00,86.2,75.3,31.95,SSE,149,7.0,7.0,70,0.00,,,0.00,VWS V13.01,2013-07-09 01:48:00,
2013-07-08 21:50:00,80.2,71.2,32.43,SW,225,2.0,10.0,74,0.00,,,0.06,VWS V13.01,2013-07-09 01:50:00,
2013-07-08 21:53:00,86.2,75.3,31.95,SSE,149,7.0,7.0,70,0.00,,,0.00,VWS V13.01,2013-07-09 01:53:00,
2013-07-08 21:55:00,80.2,70.8,32.43,ESE,112,2.0,4.0,73,0.00,,,0.06,VWS V13.01,2013-07-09 01:55:00,
2013-07-08 21:58:00,86.2,75.3,31.95,SSE,149,7.0,7.0,70,0.00,,,0.00,VWS V13.01,2013-07-09 01:58:00,
2013-07-08 22:00:00,80.1,71.1,32.43,South,180,1.0,3.0,74,0.00,,,0.06,VWS V13.01,2013-07-09 02:00:00,
2013-07-08 22:03:00,86.2,75.3,31.95,SSE,149,7.0,7.0,70,0.00,,,0.00,VWS V13.01,2013-07-09 02:03:00,
2013-07-08 22:05:00,80.0,71.0,29.90,SSE,158,2.0,4.0,74,0.00,,,0.06,VWS V13.01,2013-07-09 02:05:00,
2013-07-08 22:08:00,86.2,75.3,31.95,SSE,149,7.0,7.0,70,0.00,,,0.00,VWS V13.01,2013-07-09 02:08:00,
2013-07-08 22:10:00,80.0,71.4,29.90,South,180,2.0,5.0,75,0.00,,,0.06,VWS V13.01,2013-07-09 02:10:00,
2013-07-08 22:13:00,86.2,75.3,31.95,SSE,149,7.0,7.0,70,0.00,,,0.00,VWS V13.01,2013-07-09 02:13:00,
2013-07-08 22:15:00,79.9,71.3,29.90,South,180,1.0,3.0,75,0.00,,,0.06,VWS V13.01,2013-07-09 02:15:00,
2013-07-08 22:18:00,86.2,75.3,31.95,SSE,149,7.0,7.0,70,0.00,,,0.00,VWS V13.01,2013-07-09 02:18:00,
2013-07-08 22:20:00,79.8,71.2,29.90,South,180,1.0,5.0,75,0.00,,,0.06,VWS V13.01,2013-07-09 02:20:00,
2013-07-08 22:23:00,86.2,75.3,31.95,SSE,149,7.0,7.0,70,0.00,,,0.00,VWS V13.01,2013-07-09 02:23:00,
2013-07-08 22:25:00,79.7,71.1,29.90,SSW,202,1.0,5.0,75,0.00,,,0.06,VWS V13.01,2013-07-09 02:25:00,
2013-07-08 22:28:00,86.2,75.3,31.95,SSE,149,7.0,7.0,70,0.00,,,0.00,VWS V13.01,2013-07-09 02:28:00,
2013-07-08 22:30:00,79.6,71.4,29.90,South,180,3.0,9.0,76,0.00,,,0.06,VWS V13.01,2013-07-09 02:30:00,
2013-07-08 22:33:00,86.2,75.3,31.95,SSE,149,7.0,7.0,70,0.00,,,0.00,VWS V13.01,2013-07-09 02:33:00,
2013-07-08 22:35:00,79.4,71.2,29.90,SSE,158,2.0,5.0,76,0.00,,,0.06,VWS V13.01,2013-07-09 02:35:00,
2013-07-08 22:38:00,86.2,75.3,31.95,SSE,149,7.0,7.0,70,0.00,,,0.00,VWS V13.01,2013-07-09 02:38:00,
2013-07-08 22:40:00,79.3,71.1,29.90,South,180,1.0,4.0,76,0.00,,,0.06,VWS V13.01,2013-07-09 02:40:00,
2013-07-08 22:43:00,86.2,75.3,31.95,SSE,149,7.0,7.0,70,0.00,,,0.00,VWS V13.01,2013-07-09 02:43:00,
2013-07-08 22:45:00,79.2,71.4,29.90,South,180,2.0,6.0,77,0.00,,,0.06,VWS V13.01,2013-07-09 02:45:00,
2013-07-08 22:49:00,86.2,75.3,31.95,SSE,149,7.0,7.0,70,0.00,,,0.00,VWS V13.01,2013-07-09 02:49:00,
2013-07-08 22:50:00,79.1,71.3,29.90,SSE,158,2.0,5.0,77,0.00,,,0.06,VWS V13.01,2013-07-09 02:50:00,
2013-07-08 22:54:00,86.2,75.3,31.95,SSE,149,7.0,7.0,70,0.00,,,0.00,VWS V13.01,2013-07-09 02:54:00,
2013-07-08 22:55:00,79.1,71.3,29.90,SSW,202,1.0,5.0,77,0.00,,,0.06,VWS V13.01,2013-07-09 02:55:00,
2013-07-08 22:59:00,86.2,75.3,31.95,SSE,149,7.0,7.0,70,0.00,,,0.00,VWS V13.01,2013-07-09 02:59:00,
2013-07-08 23:00:00,79.0,71.2,29.90,SSW,202,1.0,4.0,77,0.00,,,0.06,VWS V13.01,2013-07-09 03:00:00,
2013-07-08 23:04:00,86.2,75.3,31.95,SSE,149,7.0,7.0,70,0.00,,,0.00,VWS V13.01,2013-07-09 03:04:00,
2013-07-08 23:05:00,78.9,71.1,29.90,SSW,202,1.0,4.0,77,0.00,,,0.06,VWS V13.01,2013-07-09 03:05:00,
2013-07-08 23:09:00,86.2,75.3,31.95,SSE,149,7.0,7.0,70,0.00,,,0.00,VWS V13.01,2013-07-09 03:09:00,
2013-07-08 23:10:00,78.7,70.9,29.90,SSW,202,1.0,2.0,77,0.00,,,0.06,VWS V13.01,2013-07-09 03:10:00,
2013-07-08 23:14:00,86.2,75.3,31.95,SSE,149,7.0,7.0,70,0.00,,,0.00,VWS V13.01,2013-07-09 03:14:00,
2013-07-08 23:15:00,78.7,70.9,22.55,ESE,112,1.0,4.0,77,0.00,,,0.06,VWS V13.01,2013-07-09 03:15:00,
2013-07-08 23:19:00,86.2,75.3,31.95,SSE,149,7.0,7.0,70,0.00,,,0.00,VWS V13.01,2013-07-09 03:19:00,
2013-07-08 23:20:00,78.6,70.8,22.55,ESE,112,1.0,2.0,77,0.00,,,0.06,VWS V13.01,2013-07-09 03:20:00,
2013-07-08 23:24:00,86.2,75.3,31.95,SSE,149,7.0,7.0,70,0.00,,,0.00,VWS V13.01,2013-07-09 03:24:00,
2013-07-08 23:25:00,78.5,71.1,22.55,ESE,112,1.0,3.0,78,0.00,,,0.06,VWS V13.01,2013-07-09 03:25:00,
2013-07-08 23:29:00,86.2,75.3,31.95,SSE,149,7.0,7.0,70,0.00,,,0.00,VWS V13.01,2013-07-09 03:29:00,
2013-07-08 23:30:00,78.3,71.3,22.55,ESE,112,1.0,2.0,79,0.00,,,0.06,VWS V13.01,2013-07-09 03:30:00,
2013-07-08 23:34:00,86.2,75.3,31.95,SSE,149,7.0,7.0,70,0.00,,,0.00,VWS V13.01,2013-07-09 03:34:00,
2013-07-08 23:35:00,78.2,71.2,22.55,ESE,112,0.0,3.0,79,0.00,,,0.06,VWS V13.01,2013-07-09 03:35:00,
2013-07-08 23:40:00,78.1,71.1,22.55,SSE,158,1.0,4.0,79,0.00,,,0.06,VWS V13.01,2013-07-09 03:40:00,
2013-07-08 23:41:00,86.2,75.3,31.95,SSE,149,7.0,7.0,70,0.00,,,0.00,VWS V13.01,2013-07-09 03:41:00,
2013-07-08 23:45:00,78.0,70.6,22.55,SSE,158,0.0,1.0,78,0.00,,,0.06,VWS V13.01,2013-07-09 03:45:00,
2013-07-08 23:46:00,86.2,75.3,31.95,SSE,149,7.0,7.0,70,0.00,,,0.00,VWS V13.01,2013-07-09 03:46:00,
2013-07-08 23:50:00,77.9,70.9,22.58,SSE,158,0.0,1.0,79,0.00,,,0.06,VWS V13.01,2013-07-09 03:50:00,
2013-07-08 23:51:00,86.2,75.3,31.95,SSE,149,7.0,7.0,70,0.00,,,0.00,VWS V13.01,2013-07-09 03:51:00,
2013-07-08 23:55:00,77.8,70.8,22.58,South,180,0.0,3.0,79,0.00,,,0.06,VWS V13.01,2013-07-09 03:55:00,
2013-07-08 23:56:00,86.2,75.3,31.95,SSE,149,7.0,7.0,70,0.00,,,0.00,VWS V13.01,2013-07-09 03:56:00,